Overview Statistics Trail Chart Weather Telemetry Raw packets
 

This is the latest recevied weather packets stored in our database for station/object CT1EDG-13. If no packets are shown the sender has not sent any weather packets the latest 10 day(s).

<< 7 8 9 10 11 12 13 >>
Time Temp. Humidity Pressure Rain* Wind** Luminosity Snow
1788558229 26.11° C 70% 1008.9 hPa 0 mm - - -
1788558227 26.11° C 70% 1008.9 hPa 0 mm - - -
1788557628 29.44° C 49% 1008.9 hPa 0 mm - - -
1788557627 29.44° C 49% 1008.9 hPa 0 mm - - -
1788557030 30.56° C 40% 1008.5 hPa 0 mm - - -
1788557027 30.56° C 40% 1008.5 hPa 0 mm - - -
1788556428 30° C 41% 1008.6 hPa 0 mm - - -
1788556427 30° C 41% 1008.6 hPa 0 mm - - -
1788555828 30° C 41% 1008.6 hPa 0 mm - - -
1788555827 30° C 41% 1008.6 hPa 0 mm - - -
1788555227 29.44° C 45% 1008.5 hPa 0 mm - - -
1788555226 29.44° C 45% 1008.5 hPa 0 mm - - -
1788554627 30° C 44% 1008.6 hPa 0 mm - - -
1788554626 30° C 44% 1008.6 hPa 0 mm - - -
1788554028 30° C 46% 1008.6 hPa 0 mm - - -
1788554026 30° C 46% 1008.6 hPa 0 mm - - -
1788553429 30° C 46% 1008.5 hPa 0 mm - - -
1788553426 30° C 46% 1008.5 hPa 0 mm - - -
1788552827 30° C 46% 1008.3 hPa 0 mm - - -
1788552826 30° C 46% 1008.3 hPa 0 mm - - -
1788552227 30.56° C 46% 1008.2 hPa 0 mm - - -
1788552226 30.56° C 46% 1008.2 hPa 0 mm - - -
1788551628 30.56° C 47% 1008.2 hPa 0 mm - - -
1788551626 30.56° C 47% 1008.2 hPa 0 mm - - -
1788551026 31.11° C 45% 1008.1 hPa 0 mm - - -

* Rain latest hour (hover to see other rain measurements)
** Current wind speed in m/s (hover to see current wind gust speed)